Year,Month,Day,Hour,Minute,Value (Times are PST for temperature in C)
2015,11,17,00,00,7.50
2015,11,17,00,01,7.50
2015,11,17,00,02,7.50
2015,11,17,00,03,7.60
2015,11,17,00,04,7.60
2015,11,17,00,05,7.60
2015,11,17,00,06,7.60
2015,11,17,00,07,7.60
2015,11,17,00,08,7.60
2015,11,17,00,09,7.60
2015,11,17,00,10,7.60
2015,11,17,00,11,7.60
2015,11,17,00,12,7.60
2015,11,17,00,13,7.60
2015,11,17,00,14,7.60
2015,11,17,00,15,7.70
2015,11,17,00,16,7.70
2015,11,17,00,17,7.70
2015,11,17,00,18,7.70
2015,11,17,00,19,7.70
2015,11,17,00,20,7.70
2015,11,17,00,21,7.70
2015,11,17,00,22,7.70
2015,11,17,00,23,7.70
2015,11,17,00,24,7.70
2015,11,17,00,25,7.70
2015,11,17,00,26,7.70
2015,11,17,00,27,7.70
2015,11,17,00,28,7.70
2015,11,17,00,29,7.70
2015,11,17,00,30,7.70
2015,11,17,00,31,7.80
2015,11,17,00,32,7.80
2015,11,17,00,33,7.80
2015,11,17,00,34,7.80
2015,11,17,00,35,7.80
2015,11,17,00,36,7.80
2015,11,17,00,37,7.80
2015,11,17,00,38,7.80
2015,11,17,00,39,7.80
2015,11,17,00,40,7.90
2015,11,17,00,41,7.90
2015,11,17,00,42,7.90
2015,11,17,00,43,8.00
2015,11,17,00,44,8.00
2015,11,17,00,45,8.00
2015,11,17,00,46,8.00
2015,11,17,00,47,8.00
2015,11,17,00,48,8.00
2015,11,17,00,49,8.00
2015,11,17,00,50,8.00
2015,11,17,00,51,8.00
2015,11,17,00,52,8.00
2015,11,17,00,53,8.10
2015,11,17,00,54,8.10
2015,11,17,00,55,8.10
2015,11,17,00,56,8.10
2015,11,17,00,57,8.10
2015,11,17,00,58,8.10
2015,11,17,00,59,8.10
2015,11,17,01,00,8.10
2015,11,17,01,01,8.10
2015,11,17,01,02,8.10
2015,11,17,01,03,8.10
2015,11,17,01,04,8.10
2015,11,17,01,05,8.10
2015,11,17,01,06,8.10
2015,11,17,01,07,8.10
2015,11,17,01,08,8.10
2015,11,17,01,09,8.20
2015,11,17,01,10,8.20
2015,11,17,01,11,8.20
2015,11,17,01,12,8.20
2015,11,17,01,13,8.20
2015,11,17,01,14,8.20
2015,11,17,01,15,8.20
2015,11,17,01,16,8.20
2015,11,17,01,17,8.20
2015,11,17,01,18,8.20
2015,11,17,01,19,8.20
2015,11,17,01,20,8.30
2015,11,17,01,21,8.30
2015,11,17,01,22,8.30
2015,11,17,01,23,8.40
2015,11,17,01,24,8.40
2015,11,17,01,25,8.50
2015,11,17,01,26,8.50
2015,11,17,01,27,8.50
2015,11,17,01,28,8.60
2015,11,17,01,29,8.60
2015,11,17,01,30,8.60
2015,11,17,01,31,8.60
2015,11,17,01,32,8.60
2015,11,17,01,33,8.60
2015,11,17,01,34,8.60
2015,11,17,01,35,8.60
2015,11,17,01,36,8.60
2015,11,17,01,37,8.60
2015,11,17,01,38,8.70
2015,11,17,01,39,8.70
2015,11,17,01,40,8.70
2015,11,17,01,41,8.70
2015,11,17,01,42,8.70
2015,11,17,01,43,8.70
2015,11,17,01,44,8.70
2015,11,17,01,45,8.70
2015,11,17,01,46,8.70
2015,11,17,01,47,8.70
2015,11,17,01,48,8.70
2015,11,17,01,49,8.70
2015,11,17,01,50,8.70
2015,11,17,01,51,8.70
2015,11,17,01,52,8.70
2015,11,17,01,53,8.70
2015,11,17,01,54,8.70
2015,11,17,01,55,8.70
2015,11,17,01,56,8.70
2015,11,17,01,57,8.70
2015,11,17,01,58,8.60
2015,11,17,01,59,8.60
2015,11,17,02,00,8.60
2015,11,17,02,01,8.60
2015,11,17,02,02,8.60
2015,11,17,02,03,8.50
2015,11,17,02,04,8.50
2015,11,17,02,05,8.40
2015,11,17,02,06,8.40
2015,11,17,02,07,8.40
2015,11,17,02,08,8.40
2015,11,17,02,09,8.30
2015,11,17,02,10,8.30
2015,11,17,02,11,8.30
2015,11,17,02,12,8.30
2015,11,17,02,13,8.30
2015,11,17,02,14,8.30
2015,11,17,02,15,8.30
2015,11,17,02,16,8.30
2015,11,17,02,17,8.30
2015,11,17,02,18,8.30
2015,11,17,02,19,8.30
2015,11,17,02,20,8.30
2015,11,17,02,21,8.20
2015,11,17,02,22,8.20
2015,11,17,02,23,8.30
2015,11,17,02,24,8.20
2015,11,17,02,25,8.20
2015,11,17,02,26,8.20
2015,11,17,02,27,8.20
2015,11,17,02,28,8.20
2015,11,17,02,29,8.20
2015,11,17,02,30,8.20
2015,11,17,02,31,8.20
2015,11,17,02,32,8.20
2015,11,17,02,33,8.20
2015,11,17,02,34,8.20
2015,11,17,02,35,8.20
2015,11,17,02,36,8.10
2015,11,17,02,37,8.10
2015,11,17,02,38,8.10
2015,11,17,02,39,8.10
2015,11,17,02,40,8.10
2015,11,17,02,41,8.10
2015,11,17,02,42,8.10
2015,11,17,02,43,8.10
2015,11,17,02,44,8.10
2015,11,17,02,45,8.10
2015,11,17,02,46,8.10
2015,11,17,02,47,8.10
2015,11,17,02,48,8.00
2015,11,17,02,49,8.00
2015,11,17,02,50,8.00
2015,11,17,02,51,8.00
2015,11,17,02,52,8.00
2015,11,17,02,53,8.00
2015,11,17,02,54,8.00
2015,11,17,02,55,8.00
2015,11,17,02,56,7.90
2015,11,17,02,57,7.90
2015,11,17,02,58,7.90
2015,11,17,02,59,7.90
2015,11,17,03,00,7.90
2015,11,17,03,01,7.90
2015,11,17,03,02,7.90
2015,11,17,03,03,7.80
2015,11,17,03,04,7.80
2015,11,17,03,05,7.80
2015,11,17,03,06,7.80
2015,11,17,03,07,7.80
2015,11,17,03,08,7.80
2015,11,17,03,09,7.80
2015,11,17,03,10,7.80
2015,11,17,03,11,7.70
2015,11,17,03,12,7.70
2015,11,17,03,13,7.70
2015,11,17,03,14,7.70
2015,11,17,03,15,7.70
2015,11,17,03,16,7.70
2015,11,17,03,17,7.70
2015,11,17,03,18,7.60
2015,11,17,03,19,7.60
2015,11,17,03,20,7.60
2015,11,17,03,21,7.60
2015,11,17,03,22,7.60
2015,11,17,03,23,7.60
2015,11,17,03,24,7.50
2015,11,17,03,25,7.50
2015,11,17,03,26,7.50
2015,11,17,03,27,7.50
2015,11,17,03,28,7.40
2015,11,17,03,29,7.40
2015,11,17,03,30,7.40
2015,11,17,03,31,7.40
2015,11,17,03,32,7.30
2015,11,17,03,33,7.30
2015,11,17,03,34,7.30
2015,11,17,03,35,7.30
2015,11,17,03,36,7.30
2015,11,17,03,37,7.30
2015,11,17,03,38,7.30
2015,11,17,03,39,7.30
2015,11,17,03,40,7.20
2015,11,17,03,41,7.20
2015,11,17,03,42,7.20
2015,11,17,03,43,7.20
2015,11,17,03,44,7.20
2015,11,17,03,45,7.20
2015,11,17,03,46,7.20
2015,11,17,03,47,7.20
2015,11,17,03,48,7.20
2015,11,17,03,49,7.20
2015,11,17,03,50,7.20
2015,11,17,03,51,7.20
2015,11,17,03,52,7.20
2015,11,17,03,53,7.20
2015,11,17,03,54,7.20
2015,11,17,03,55,7.20
2015,11,17,03,56,7.20
2015,11,17,03,57,7.20
2015,11,17,03,58,7.20
2015,11,17,03,59,7.20
2015,11,17,04,00,7.20
2015,11,17,04,01,7.20
2015,11,17,04,02,7.20
2015,11,17,04,03,7.20
2015,11,17,04,04,7.20
2015,11,17,04,05,7.20
2015,11,17,04,06,7.20
2015,11,17,04,07,7.20
2015,11,17,04,08,7.20
2015,11,17,04,09,7.20
2015,11,17,04,10,7.20
2015,11,17,04,11,7.20
2015,11,17,04,12,7.20
2015,11,17,04,13,7.20
2015,11,17,04,14,7.20
2015,11,17,04,15,7.20
2015,11,17,04,16,7.20
2015,11,17,04,17,7.20
2015,11,17,04,18,7.20
2015,11,17,04,19,7.20
2015,11,17,04,20,7.20
2015,11,17,04,21,7.20
2015,11,17,04,22,7.20
2015,11,17,04,23,7.20
2015,11,17,04,24,7.20
2015,11,17,04,25,7.20
2015,11,17,04,26,7.20
2015,11,17,04,27,7.20
2015,11,17,04,28,7.20
2015,11,17,04,29,7.20
2015,11,17,04,30,7.20
2015,11,17,04,31,7.20
2015,11,17,04,32,7.20
2015,11,17,04,33,7.20
2015,11,17,04,34,7.10
2015,11,17,04,35,7.10
2015,11,17,04,36,7.10
2015,11,17,04,37,7.10
2015,11,17,04,38,7.10
2015,11,17,04,39,7.10
2015,11,17,04,40,7.10
2015,11,17,04,41,7.10
2015,11,17,04,42,7.10
2015,11,17,04,43,7.10
2015,11,17,04,44,7.10
2015,11,17,04,45,7.00
2015,11,17,04,46,7.00
2015,11,17,04,47,7.00
2015,11,17,04,48,7.00
2015,11,17,04,49,7.00
2015,11,17,04,50,7.00
2015,11,17,04,51,7.00
2015,11,17,04,52,7.00
2015,11,17,04,53,7.00
2015,11,17,04,54,7.00
2015,11,17,04,55,7.00
2015,11,17,04,56,7.00
2015,11,17,04,57,7.00
2015,11,17,04,58,7.00
2015,11,17,04,59,7.00
2015,11,17,05,00,7.00
2015,11,17,05,01,7.00
2015,11,17,05,02,7.00
2015,11,17,05,03,7.00
2015,11,17,05,04,7.00
2015,11,17,05,05,7.00
2015,11,17,05,06,7.00
2015,11,17,05,07,7.00
2015,11,17,05,08,7.10
2015,11,17,05,09,7.10
2015,11,17,05,10,7.10
2015,11,17,05,11,7.10
2015,11,17,05,12,7.10
2015,11,17,05,13,7.10
2015,11,17,05,14,7.10
2015,11,17,05,15,7.10
2015,11,17,05,16,7.10
2015,11,17,05,17,7.20
2015,11,17,05,18,7.20
2015,11,17,05,19,7.40
2015,11,17,05,20,7.60
2015,11,17,05,21,7.80
2015,11,17,05,22,7.90
2015,11,17,05,23,8.00
2015,11,17,05,24,8.10
2015,11,17,05,25,8.10
2015,11,17,05,26,8.20
2015,11,17,05,27,8.20
2015,11,17,05,28,8.20
2015,11,17,05,29,8.20
2015,11,17,05,30,8.20
2015,11,17,05,31,8.20
2015,11,17,05,32,8.20
2015,11,17,05,33,8.30
2015,11,17,05,34,8.30
2015,11,17,05,35,8.30
2015,11,17,05,36,8.20
2015,11,17,05,37,8.20
2015,11,17,05,38,8.20
2015,11,17,05,39,8.30
2015,11,17,05,40,8.40
2015,11,17,05,41,8.50
2015,11,17,05,42,8.50
2015,11,17,05,43,8.70
2015,11,17,05,44,8.80
2015,11,17,05,45,8.90
2015,11,17,05,46,9.10
2015,11,17,05,47,9.20
2015,11,17,05,48,9.20
2015,11,17,05,49,9.30
2015,11,17,05,50,9.30
2015,11,17,05,51,9.30
2015,11,17,05,52,9.30
2015,11,17,05,53,9.40
2015,11,17,05,54,9.40
2015,11,17,05,55,9.50
2015,11,17,05,56,9.60
2015,11,17,05,57,9.70
2015,11,17,05,58,9.70
2015,11,17,05,59,9.70
2015,11,17,06,00,9.80
2015,11,17,06,01,10.00
2015,11,17,06,02,10.30
2015,11,17,06,03,10.40
2015,11,17,06,04,10.40
2015,11,17,06,05,10.50
2015,11,17,06,06,10.60
2015,11,17,06,07,10.70
2015,11,17,06,08,10.80
2015,11,17,06,09,10.90
2015,11,17,06,10,11.00
2015,11,17,06,11,11.10
2015,11,17,06,12,11.20
2015,11,17,06,13,11.20
2015,11,17,06,14,11.30
2015,11,17,06,15,11.30
2015,11,17,06,16,11.40
2015,11,17,06,17,11.40
2015,11,17,06,18,11.40
2015,11,17,06,19,11.40
2015,11,17,06,20,11.40
2015,11,17,06,21,11.40
2015,11,17,06,22,11.40
2015,11,17,06,23,11.50
2015,11,17,06,24,11.50
2015,11,17,06,25,11.50
2015,11,17,06,26,11.50
2015,11,17,06,27,11.50
2015,11,17,06,28,11.50
2015,11,17,06,29,11.50
2015,11,17,06,30,11.50
2015,11,17,06,31,11.50
2015,11,17,06,32,11.50
2015,11,17,06,33,11.50
2015,11,17,06,34,11.50
2015,11,17,06,35,11.50
2015,11,17,06,36,11.50
2015,11,17,06,37,11.50
2015,11,17,06,38,11.50
2015,11,17,06,39,11.50
2015,11,17,06,40,11.50
2015,11,17,06,41,11.50
2015,11,17,06,42,11.50
2015,11,17,06,43,11.50
2015,11,17,06,44,11.50
2015,11,17,06,45,11.50
2015,11,17,06,46,11.40
2015,11,17,06,47,11.40
2015,11,17,06,48,11.40
2015,11,17,06,49,11.40
2015,11,17,06,50,11.40
2015,11,17,06,51,11.40
2015,11,17,06,52,11.40
2015,11,17,06,53,11.40
2015,11,17,06,54,11.40
2015,11,17,06,55,11.40
2015,11,17,06,56,11.40
2015,11,17,06,57,11.40
2015,11,17,06,58,11.30
2015,11,17,06,59,11.30
2015,11,17,07,00,11.30
2015,11,17,07,01,11.30
2015,11,17,07,02,11.30
2015,11,17,07,03,11.30
2015,11,17,07,04,11.30
2015,11,17,07,05,11.30
2015,11,17,07,06,11.30
2015,11,17,07,07,11.30
2015,11,17,07,08,11.20
2015,11,17,07,09,11.20
2015,11,17,07,10,11.20
2015,11,17,07,11,11.20
2015,11,17,07,12,11.20
2015,11,17,07,13,11.20
2015,11,17,07,14,11.20
2015,11,17,07,15,11.20
2015,11,17,07,16,11.20
2015,11,17,07,17,11.30
2015,11,17,07,18,11.20
2015,11,17,07,19,11.30
2015,11,17,07,20,11.30
2015,11,17,07,21,11.20
2015,11,17,07,22,11.30
2015,11,17,07,23,11.30
2015,11,17,07,24,11.30
2015,11,17,07,25,11.20
2015,11,17,07,26,11.20
2015,11,17,07,27,11.20
2015,11,17,07,28,11.20
2015,11,17,07,29,11.30
2015,11,17,07,30,11.30
2015,11,17,07,31,11.30
2015,11,17,07,32,11.30
2015,11,17,07,33,11.30
2015,11,17,07,34,11.30
2015,11,17,07,35,11.30
2015,11,17,07,36,11.30
2015,11,17,07,37,11.30
2015,11,17,07,38,11.30
2015,11,17,07,39,11.40
2015,11,17,07,40,11.40
2015,11,17,07,41,11.40
2015,11,17,07,42,11.40
2015,11,17,07,43,11.40
2015,11,17,07,44,11.40
2015,11,17,07,45,11.40
2015,11,17,07,46,11.40
2015,11,17,07,47,11.40
2015,11,17,07,48,11.40
2015,11,17,07,49,11.40
2015,11,17,07,50,11.40
2015,11,17,07,51,11.40
2015,11,17,07,52,11.40
2015,11,17,07,53,11.40
2015,11,17,07,54,11.40
2015,11,17,07,55,11.40
2015,11,17,07,56,11.40
2015,11,17,07,57,11.40
2015,11,17,07,58,11.40
2015,11,17,07,59,11.40
2015,11,17,08,00,11.40
2015,11,17,08,01,11.40
2015,11,17,08,02,11.40
2015,11,17,08,03,11.40
2015,11,17,08,04,11.40
2015,11,17,08,05,11.40
2015,11,17,08,06,11.40
2015,11,17,08,07,11.40
2015,11,17,08,08,11.40
2015,11,17,08,09,11.40
2015,11,17,08,10,11.40
2015,11,17,08,11,11.40
2015,11,17,08,12,11.40
2015,11,17,08,13,11.40
2015,11,17,08,14,11.40
2015,11,17,08,15,11.40
2015,11,17,08,16,11.40
2015,11,17,08,17,11.40
2015,11,17,08,18,11.40
2015,11,17,08,19,11.40
2015,11,17,08,20,11.40
2015,11,17,08,21,11.40
2015,11,17,08,22,11.40
2015,11,17,08,23,11.50
2015,11,17,08,24,11.50
2015,11,17,08,25,11.50
2015,11,17,08,26,11.60
2015,11,17,08,27,11.60
2015,11,17,08,28,11.60
2015,11,17,08,29,11.60
2015,11,17,08,30,11.60
2015,11,17,08,31,11.70
2015,11,17,08,32,11.70
2015,11,17,08,33,11.70
2015,11,17,08,34,11.70
2015,11,17,08,35,11.70
2015,11,17,08,36,11.70
2015,11,17,08,37,11.70
2015,11,17,08,38,11.70
2015,11,17,08,39,11.70
2015,11,17,08,40,11.80
2015,11,17,08,41,11.80
2015,11,17,08,42,11.80
2015,11,17,08,43,11.80
2015,11,17,08,44,11.80
2015,11,17,08,45,11.80
2015,11,17,08,46,11.80
2015,11,17,08,47,11.80
2015,11,17,08,48,11.80
2015,11,17,08,49,11.80
2015,11,17,08,50,11.90
2015,11,17,08,51,11.80
2015,11,17,08,52,11.80
2015,11,17,08,53,11.80
2015,11,17,08,54,11.80
2015,11,17,08,55,11.80
2015,11,17,08,56,11.80
2015,11,17,08,57,11.80
2015,11,17,08,58,11.90
2015,11,17,08,59,11.90
2015,11,17,09,00,11.90
2015,11,17,09,01,11.90
2015,11,17,09,02,11.90
2015,11,17,09,03,11.90
2015,11,17,09,04,11.90
2015,11,17,09,05,11.90
2015,11,17,09,06,11.90
2015,11,17,09,07,11.90
2015,11,17,09,08,11.90
2015,11,17,09,09,11.90
2015,11,17,09,10,11.90
2015,11,17,09,11,11.90
2015,11,17,09,12,11.90
2015,11,17,09,13,11.90
2015,11,17,09,14,11.90
2015,11,17,09,15,11.90
2015,11,17,09,16,11.90
2015,11,17,09,17,11.90
2015,11,17,09,18,11.90
2015,11,17,09,19,11.90
2015,11,17,09,20,11.90
2015,11,17,09,21,11.90
2015,11,17,09,22,11.90
2015,11,17,09,23,11.90
2015,11,17,09,24,11.90
2015,11,17,09,25,12.00
2015,11,17,09,26,12.00
2015,11,17,09,27,12.00
2015,11,17,09,28,12.00
2015,11,17,09,29,12.00
2015,11,17,09,30,12.00
2015,11,17,09,31,12.00
2015,11,17,09,32,12.00
2015,11,17,09,33,12.00
2015,11,17,09,34,12.00
2015,11,17,09,35,12.00
2015,11,17,09,36,12.00
2015,11,17,09,37,12.00
2015,11,17,09,38,12.00
2015,11,17,09,39,12.10
2015,11,17,09,40,12.10
2015,11,17,09,41,12.10
2015,11,17,09,42,12.10
2015,11,17,09,43,12.10
2015,11,17,09,44,12.10
2015,11,17,09,45,12.10
2015,11,17,09,46,12.10
2015,11,17,09,47,12.10
2015,11,17,09,48,12.10
2015,11,17,09,49,12.10
2015,11,17,09,50,12.10
2015,11,17,09,51,12.10
2015,11,17,09,52,12.20
2015,11,17,09,53,12.10
2015,11,17,09,54,12.20
2015,11,17,09,55,12.20
2015,11,17,09,56,12.20
2015,11,17,09,57,12.20
2015,11,17,09,58,12.20
2015,11,17,09,59,12.20
2015,11,17,10,00,12.20
2015,11,17,10,01,12.20
2015,11,17,10,02,12.20
2015,11,17,10,03,12.20
2015,11,17,10,04,12.20
2015,11,17,10,05,12.20
2015,11,17,10,06,12.20
2015,11,17,10,07,12.20
2015,11,17,10,08,12.20
2015,11,17,10,09,12.20
2015,11,17,10,10,12.20
2015,11,17,10,11,12.20
2015,11,17,10,12,12.20
2015,11,17,10,13,12.20
2015,11,17,10,14,12.20
2015,11,17,10,15,12.20
2015,11,17,10,16,12.20
2015,11,17,10,17,12.20
2015,11,17,10,18,12.20
2015,11,17,10,19,12.20
2015,11,17,10,20,12.20
2015,11,17,10,21,12.20
2015,11,17,10,22,12.20
2015,11,17,10,23,12.20
2015,11,17,10,24,12.20
2015,11,17,10,25,12.20
2015,11,17,10,26,12.20
2015,11,17,10,27,12.20
2015,11,17,10,28,12.20
2015,11,17,10,29,12.20
2015,11,17,10,30,12.20
2015,11,17,10,31,12.20
2015,11,17,10,32,12.20
2015,11,17,10,33,12.20
2015,11,17,10,34,12.20
2015,11,17,10,35,12.20
2015,11,17,10,36,12.20
2015,11,17,10,37,12.20
2015,11,17,10,38,12.20
2015,11,17,10,39,12.20
2015,11,17,10,40,12.20
2015,11,17,10,41,12.20
2015,11,17,10,42,12.20
2015,11,17,10,43,12.20
2015,11,17,10,44,12.20
2015,11,17,10,45,12.20
2015,11,17,10,46,12.20
2015,11,17,10,47,12.20
2015,11,17,10,48,12.20
2015,11,17,10,49,12.20
2015,11,17,10,50,12.20
2015,11,17,10,51,12.20
2015,11,17,10,52,12.20
2015,11,17,10,53,12.20
2015,11,17,10,54,12.20
2015,11,17,10,55,12.20
2015,11,17,10,56,12.20
2015,11,17,10,57,12.20
2015,11,17,10,58,12.20
2015,11,17,10,59,12.20
2015,11,17,11,00,12.20
2015,11,17,11,01,12.20
2015,11,17,11,02,12.30
2015,11,17,11,03,12.30
2015,11,17,11,04,12.30
2015,11,17,11,05,12.30
2015,11,17,11,06,12.30
2015,11,17,11,07,12.30
2015,11,17,11,08,12.30
2015,11,17,11,09,12.30
2015,11,17,11,10,12.30
2015,11,17,11,11,12.30
2015,11,17,11,12,12.30
2015,11,17,11,13,12.30
2015,11,17,11,14,12.30
2015,11,17,11,15,12.30
2015,11,17,11,16,12.30
2015,11,17,11,17,12.30
2015,11,17,11,18,12.30
2015,11,17,11,19,12.30
2015,11,17,11,20,12.30
2015,11,17,11,21,12.30
2015,11,17,11,22,12.30
2015,11,17,11,23,12.30
2015,11,17,11,24,12.30
2015,11,17,11,25,12.30
2015,11,17,11,26,12.30
2015,11,17,11,27,12.30
2015,11,17,11,28,12.30
2015,11,17,11,29,12.30
2015,11,17,11,30,12.30
2015,11,17,11,31,12.30
2015,11,17,11,32,12.30
2015,11,17,11,33,12.30
2015,11,17,11,34,12.30
2015,11,17,11,35,12.30
2015,11,17,11,36,12.30
2015,11,17,11,37,12.30
2015,11,17,11,38,12.30
2015,11,17,11,39,12.30
2015,11,17,11,40,12.30
2015,11,17,11,41,12.30
2015,11,17,11,42,12.30
2015,11,17,11,43,12.30
2015,11,17,11,44,12.30
2015,11,17,11,45,12.30
2015,11,17,11,46,12.30
2015,11,17,11,47,12.30
2015,11,17,11,48,12.30
2015,11,17,11,49,12.30
2015,11,17,11,50,12.40
2015,11,17,14,31,8.60
2015,11,17,14,32,8.60
2015,11,17,14,33,8.70
2015,11,17,14,34,8.70
2015,11,17,14,35,8.80
2015,11,17,14,36,8.80
2015,11,17,14,37,8.80
2015,11,17,14,38,8.70
2015,11,17,14,39,8.70
2015,11,17,14,40,8.70
2015,11,17,14,41,8.70
2015,11,17,14,42,8.70
2015,11,17,14,43,8.70
2015,11,17,14,44,8.70
2015,11,17,14,45,8.70
2015,11,17,14,46,8.70
2015,11,17,14,47,8.70
2015,11,17,14,48,8.70
2015,11,17,14,49,8.70
2015,11,17,14,50,8.70
2015,11,17,14,51,8.70
2015,11,17,14,52,8.80
2015,11,17,14,53,8.80
2015,11,17,14,54,8.80
2015,11,17,14,55,8.80
2015,11,17,14,56,8.80
2015,11,17,14,57,8.80
2015,11,17,14,58,8.80
2015,11,17,14,59,8.70
2015,11,17,15,00,8.60
2015,11,17,15,01,8.50
2015,11,17,15,02,8.50
2015,11,17,15,03,8.50
2015,11,17,15,04,8.50
2015,11,17,15,05,8.50
2015,11,17,15,06,8.50
2015,11,17,15,07,8.40
2015,11,17,15,08,8.40
2015,11,17,15,09,8.30
2015,11,17,15,10,8.40
2015,11,17,15,11,8.30
2015,11,17,15,12,8.40
2015,11,17,15,13,8.40
2015,11,17,15,14,8.50
2015,11,17,15,15,8.40
2015,11,17,15,16,8.50
2015,11,17,15,17,8.50
2015,11,17,15,18,8.50
2015,11,17,15,19,8.50
2015,11,17,15,20,8.60
2015,11,17,15,21,8.60
2015,11,17,15,22,8.60
2015,11,17,15,23,8.50
2015,11,17,15,24,8.40
2015,11,17,15,25,8.40
2015,11,17,15,26,8.40
2015,11,17,15,27,8.40
2015,11,17,15,28,8.30
2015,11,17,15,29,8.40
2015,11,17,15,30,8.40
2015,11,17,15,31,8.40
2015,11,17,15,32,8.40
2015,11,17,15,33,8.40
2015,11,17,15,34,8.40
2015,11,17,15,35,8.40
2015,11,17,15,36,8.40
2015,11,17,15,37,8.40
2015,11,17,15,38,8.30
2015,11,17,15,39,8.20
2015,11,17,15,40,8.20
2015,11,17,15,41,8.20
2015,11,17,15,42,8.20
2015,11,17,15,43,8.10
2015,11,17,15,44,8.10
2015,11,17,15,45,8.10
2015,11,17,15,46,8.10
2015,11,17,15,47,8.10
2015,11,17,15,48,8.20
2015,11,17,15,49,8.20
2015,11,17,15,50,8.30
2015,11,17,15,51,8.30
2015,11,17,15,52,8.40
2015,11,17,15,53,8.50
2015,11,17,15,54,8.60
2015,11,17,15,55,8.60
2015,11,17,15,56,8.60
2015,11,17,15,57,8.50
2015,11,17,15,58,8.60
2015,11,17,15,59,8.60
2015,11,17,16,00,8.50
2015,11,17,16,01,8.50
2015,11,17,16,02,8.40
2015,11,17,16,03,8.30
2015,11,17,16,04,8.30
2015,11,17,16,05,8.20
2015,11,17,16,06,8.20
2015,11,17,16,07,8.20
2015,11,17,16,08,8.20
2015,11,17,16,09,8.20
2015,11,17,16,10,8.10
2015,11,17,16,11,8.10
2015,11,17,16,12,8.10
2015,11,17,16,13,8.00
2015,11,17,16,14,8.00
2015,11,17,16,15,7.90
2015,11,17,16,16,7.80
2015,11,17,16,17,7.70
2015,11,17,16,18,7.70
2015,11,17,16,19,7.60
2015,11,17,16,20,7.60
2015,11,17,16,21,7.60
2015,11,17,16,22,7.60
2015,11,17,16,23,7.60
2015,11,17,16,24,7.60
2015,11,17,16,25,7.60
2015,11,17,16,26,7.50
2015,11,17,16,27,7.50
2015,11,17,16,28,7.40
2015,11,17,16,29,7.30
2015,11,17,16,30,7.30
2015,11,17,16,31,7.30
2015,11,17,16,32,7.20
2015,11,17,16,33,7.20
2015,11,17,16,34,7.20
2015,11,17,16,35,7.20
2015,11,17,16,36,7.20
2015,11,17,16,37,7.20
2015,11,17,16,38,7.20
2015,11,17,16,39,7.10
2015,11,17,16,40,7.10
2015,11,17,16,41,7.10
2015,11,17,16,42,7.10
2015,11,17,16,43,7.10
2015,11,17,16,44,7.00
2015,11,17,16,45,7.00
2015,11,17,16,46,7.00
2015,11,17,16,47,6.90
2015,11,17,16,48,6.90
2015,11,17,16,49,6.80
2015,11,17,16,50,6.80
2015,11,17,16,51,6.80
2015,11,17,16,52,6.70
2015,11,17,16,53,6.70
2015,11,17,16,54,6.70
2015,11,17,16,55,6.60
2015,11,17,16,56,6.60
2015,11,17,16,57,6.60
2015,11,17,16,58,6.60
2015,11,17,16,59,6.60
2015,11,17,17,00,6.60
2015,11,17,17,01,6.60
2015,11,17,17,02,6.70
2015,11,17,17,03,6.80
2015,11,17,17,04,6.80
2015,11,17,17,05,6.80
2015,11,17,17,06,6.80
2015,11,17,17,07,6.90
2015,11,17,17,08,6.90
2015,11,17,17,09,7.00
2015,11,17,17,10,6.90
2015,11,17,17,11,6.90
2015,11,17,17,12,6.80
2015,11,17,17,13,6.80
2015,11,17,17,14,6.70
2015,11,17,17,15,6.80
2015,11,17,17,16,6.90
2015,11,17,17,17,6.90
2015,11,17,17,18,6.80
2015,11,17,17,19,6.80
2015,11,17,17,20,6.80
2015,11,17,17,21,6.80
2015,11,17,17,22,6.80
2015,11,17,17,23,6.70
2015,11,17,17,24,6.60
2015,11,17,17,25,6.50
2015,11,17,17,26,6.40
2015,11,17,17,27,6.50
2015,11,17,17,28,6.50
2015,11,17,17,29,6.60
2015,11,17,17,30,6.50
2015,11,17,17,31,6.50
2015,11,17,17,32,6.50
2015,11,17,17,33,6.60
2015,11,17,17,34,6.70
2015,11,17,17,35,6.70
2015,11,17,17,36,6.60
2015,11,17,17,37,6.50
2015,11,17,17,38,6.50
2015,11,17,17,39,6.40
2015,11,17,17,40,6.40
2015,11,17,17,41,6.30
2015,11,17,17,42,6.30
2015,11,17,17,43,6.30
2015,11,17,17,44,6.30
2015,11,17,17,45,6.20
2015,11,17,17,46,6.10
2015,11,17,17,47,5.90
2015,11,17,17,48,5.80
2015,11,17,17,49,5.60
2015,11,17,17,50,5.50
2015,11,17,17,51,5.40
2015,11,17,17,52,5.30
2015,11,17,17,53,5.20
2015,11,17,17,54,5.20
2015,11,17,17,55,5.10
2015,11,17,17,56,5.00
2015,11,17,17,57,5.00
2015,11,17,17,58,4.90
2015,11,17,17,59,4.80
2015,11,17,18,00,4.80
2015,11,17,18,01,4.80
2015,11,17,18,02,4.80
2015,11,17,18,03,4.80
2015,11,17,18,04,4.80
2015,11,17,18,05,4.90
2015,11,17,18,06,5.00
2015,11,17,18,07,5.10
2015,11,17,18,08,5.20
2015,11,17,18,09,5.20
2015,11,17,18,10,5.10
2015,11,17,18,11,5.20
2015,11,17,18,12,5.20
2015,11,17,18,13,5.20
2015,11,17,18,14,5.20
2015,11,17,18,15,5.20
2015,11,17,18,16,5.30
2015,11,17,18,17,5.30
2015,11,17,18,18,5.30
2015,11,17,18,19,5.30
2015,11,17,18,20,5.30
2015,11,17,18,21,5.20
2015,11,17,18,22,5.20
2015,11,17,18,23,5.20
2015,11,17,18,24,5.20
2015,11,17,18,25,5.30
2015,11,17,18,26,5.30
2015,11,17,18,27,5.30
2015,11,17,18,28,5.20
2015,11,17,18,29,5.30
2015,11,17,18,30,5.30
2015,11,17,18,31,5.30
2015,11,17,18,32,5.30
2015,11,17,18,33,5.30
2015,11,17,18,34,5.30
2015,11,17,18,35,5.30
2015,11,17,18,36,5.30
2015,11,17,18,37,5.30
2015,11,17,18,38,5.30
2015,11,17,18,39,5.30
2015,11,17,18,40,5.40
2015,11,17,18,41,5.30
2015,11,17,18,42,5.30
2015,11,17,18,43,5.30
2015,11,17,18,44,5.30
2015,11,17,18,45,5.40
2015,11,17,18,46,5.50
2015,11,17,18,47,5.60
2015,11,17,18,48,5.60
2015,11,17,18,49,5.60
2015,11,17,18,50,5.60
2015,11,17,18,51,5.70
2015,11,17,18,52,5.60
2015,11,17,18,53,5.70
2015,11,17,18,54,5.80
2015,11,17,18,55,5.80
2015,11,17,18,56,5.80
2015,11,17,18,57,5.80
2015,11,17,18,58,5.80
2015,11,17,18,59,5.70
2015,11,17,19,00,5.70
2015,11,17,19,01,5.70
2015,11,17,19,02,5.80
2015,11,17,19,03,5.80
2015,11,17,19,04,5.90
2015,11,17,19,05,5.80
2015,11,17,19,06,5.80
2015,11,17,19,07,5.90
2015,11,17,19,08,5.90
2015,11,17,19,09,5.90
2015,11,17,19,10,5.80
2015,11,17,19,11,5.80
2015,11,17,19,12,5.70
2015,11,17,19,13,5.70
2015,11,17,19,14,5.60
2015,11,17,19,15,5.60
2015,11,17,19,16,5.60
2015,11,17,19,17,5.60
2015,11,17,19,18,5.50
2015,11,17,19,19,5.50
2015,11,17,19,20,5.40
2015,11,17,19,21,5.40
2015,11,17,19,22,5.40
2015,11,17,19,23,5.40
2015,11,17,19,24,5.30
2015,11,17,19,25,5.20
2015,11,17,19,26,5.20
2015,11,17,19,27,5.30
2015,11,17,19,28,5.30
2015,11,17,19,29,5.30
2015,11,17,19,30,5.30
2015,11,17,19,31,5.30
2015,11,17,19,32,5.30
2015,11,17,19,33,5.40
2015,11,17,19,34,5.50
2015,11,17,19,35,5.60
2015,11,17,19,36,5.60
2015,11,17,19,37,5.60
2015,11,17,19,38,5.60
2015,11,17,19,39,5.70
2015,11,17,19,40,5.60
2015,11,17,19,41,5.60
2015,11,17,19,42,5.60
2015,11,17,19,43,5.50
2015,11,17,19,44,5.40
2015,11,17,19,45,5.40
2015,11,17,19,46,5.40
2015,11,17,19,47,5.40
2015,11,17,19,48,5.30
2015,11,17,19,49,5.30
2015,11,17,19,50,5.20
2015,11,17,19,51,5.20
2015,11,17,19,52,5.20
2015,11,17,19,53,5.20
2015,11,17,19,54,5.20
2015,11,17,19,55,5.10
2015,11,17,19,56,5.10
2015,11,17,19,57,5.10
2015,11,17,19,58,5.00
2015,11,17,19,59,5.00
2015,11,17,20,00,5.10
2015,11,17,20,01,5.10
2015,11,17,20,02,5.10
2015,11,17,20,03,5.10
2015,11,17,20,04,5.10
2015,11,17,20,05,5.10
2015,11,17,20,06,5.10
2015,11,17,20,07,5.20
2015,11,17,20,08,5.20
2015,11,17,20,09,5.20
2015,11,17,20,10,5.20
2015,11,17,20,11,5.30
2015,11,17,20,12,5.20
2015,11,17,20,13,5.20
2015,11,17,20,14,5.20
2015,11,17,20,15,5.20
2015,11,17,20,16,5.20
2015,11,17,20,17,5.20
2015,11,17,20,18,5.10
2015,11,17,20,19,5.10
2015,11,17,20,20,5.00
2015,11,17,20,21,5.00
2015,11,17,20,22,5.00
2015,11,17,20,23,5.00
2015,11,17,20,24,5.00
2015,11,17,20,25,5.00
2015,11,17,20,26,5.00
2015,11,17,20,27,5.10
2015,11,17,20,28,5.20
2015,11,17,20,29,5.30
2015,11,17,20,30,5.40